Weather History for Delaware, OH

Change the Weather History Date:

Wednesday, December 5, 2012

  Actual Average Record
Temperature  
Mean Temperature 32 °F -  
Max Temperature 37 °F 39 °F 65 °F (1960)
Min Temperature 26 °F 25 °F 6 °F (1976)
Degree Days  
Heating Degree Days 32    
Moisture  
Dew Point 29 °F    
Average Humidity 85    
Maximum Humidity 100    
Minimum Humidity 70    
Precipitation  
Precipitation 0.00 in - - ()
Sea Level Pressure  
Sea Level Pressure 30.31 in    
Wind  
Wind Speed 4 mph (North)    
Max Wind Speed 15 mph    
Max Gust Speed 18 mph    
Visibility 9 miles    
Events      
Averages and records for this station are not official NWS values.
T = Trace of Precipitation, MM = Missing Value Source: NWS Daily Summary

Daily Weather History Graph

Daily Weather History Graph

Search for Another Location

Airport:

Trip Planner

Search our weather history database for the weather conditions in past years. The results will help you decide how hot, cold, wet, or windy it might be!

Date:

Astronomy

Dec. 05, 2012 Rise Set
Actual Time 7:40 AM EST 5:06 PM EST
Civil Twilight 7:09 AM EST 5:36 PM EST
Nautical Twilight 6:35 AM EST 6:10 PM EST
Astronomical Twilight 6:03 AM EST 6:43 PM EST
Moon 11:55 PM EST (12/5) 12:02 PM EST (12/5)
Length of Visible Light 10h 26m
Length of Day
9h 26m
Waning Gibbous, 60% of the Moon is Illuminated
Dec 5
Waning Gibbous
Dec 6
Last Quarter
Dec 13
New
Dec 20
First Quarter
Dec 28
Full

Hourly Weather History & Observations

Time (EST) Temp. Windchill Dew Point Humidity Pressure Visibility Wind Dir Wind Speed Gust Speed Precip Events Conditions
12:20 AM 37.4 °F - 35.6 °F 93% 30.17 in 7.0 mi Calm Calm - N/A   Clear
12:39 AM 37.4 °F - 37.4 °F 100% 30.17 in 7.0 mi Calm Calm - N/A   Clear
12:59 AM 37.4 °F 34.9 °F 35.6 °F 93% 30.17 in 7.0 mi SSW 3.5 mph - N/A   Clear
1:20 AM 35.6 °F 32.8 °F 35.6 °F 100% 30.17 in 5.0 mi SSW 3.5 mph - N/A   Clear
1:39 AM 35.6 °F 32.8 °F 35.6 °F 100% 30.18 in 5.0 mi SSW 3.5 mph - N/A   Clear
1:59 AM 35.6 °F - 35.6 °F 100% 30.19 in 5.0 mi Calm Calm - N/A   Clear
2:20 AM 35.6 °F - 33.8 °F 93% 30.20 in 4.0 mi Calm Calm - N/A   Clear
2:59 AM 35.6 °F 32.8 °F 33.8 °F 93% 30.21 in 4.0 mi WSW 3.5 mph - N/A   Clear
3:20 AM 33.8 °F - 32.0 °F 93% 30.21 in 4.0 mi Calm Calm - N/A   Clear
3:39 AM 32.0 °F 28.7 °F 32.0 °F 100% 30.22 in 4.0 mi SSW 3.5 mph - N/A   Clear
3:59 AM 32.0 °F - 32.0 °F 100% 30.23 in 5.0 mi Calm Calm - N/A   Clear
4:20 AM 32.0 °F 27.5 °F 32.0 °F 100% 30.23 in 5.0 mi SW 4.6 mph - N/A   Clear
4:39 AM 35.6 °F - 33.8 °F 93% 30.23 in 7.0 mi Calm Calm - N/A   Clear
5:00 AM 33.8 °F 30.8 °F 33.8 °F 100% 30.24 in 10.0 mi WSW 3.5 mph - N/A   Clear
5:19 AM 33.8 °F 30.8 °F 33.8 °F 100% 30.25 in 10.0 mi West 3.5 mph - N/A   Clear
5:40 AM 33.8 °F 28.6 °F 32.0 °F 93% 30.25 in 10.0 mi NW 5.8 mph - N/A   Clear
5:59 AM 33.8 °F 29.6 °F 32.0 °F 93% 30.26 in 10.0 mi WNW 4.6 mph - N/A   Clear
6:19 AM 33.8 °F 27.7 °F 32.0 °F 93% 30.26 in 10.0 mi NW 6.9 mph - N/A   Clear
6:40 AM 33.8 °F 28.6 °F 32.0 °F 93% 30.27 in 10.0 mi NW 5.8 mph - N/A   Clear
6:59 AM 33.8 °F 29.6 °F 32.0 °F 93% 30.27 in 10.0 mi NW 4.6 mph - N/A   Clear
7:19 AM 33.8 °F 29.6 °F 32.0 °F 93% 30.29 in 10.0 mi NW 4.6 mph - N/A   Clear
7:40 AM 32.0 °F 28.7 °F 32.0 °F 100% 30.29 in 10.0 mi WNW 3.5 mph - N/A   Clear
7:59 AM 32.0 °F 25.6 °F 32.0 °F 100% 30.30 in 10.0 mi NW 6.9 mph - N/A   Clear
9:40 AM 35.6 °F 29.2 °F 32.0 °F 87% 30.34 in 10.0 mi NW 8.1 mph - N/A   Clear
9:59 AM 35.6 °F 29.9 °F 32.0 °F 87% 30.35 in 10.0 mi NNW 6.9 mph - N/A   Clear
10:19 AM 35.6 °F 27.5 °F 30.2 °F 81% 30.35 in 10.0 mi North 11.5 mph - N/A   Mostly Cloudy
10:40 AM 35.6 °F 27.1 °F 30.2 °F 81% 30.36 in 10.0 mi NNW 12.7 mph - N/A   Scattered Clouds
10:59 AM 35.6 °F 27.5 °F 30.2 °F 81% 30.36 in 10.0 mi NNW 11.5 mph 16.1 mph N/A   Clear
11:19 AM 35.6 °F 27.5 °F 30.2 °F 81% 30.36 in 10.0 mi North 11.5 mph - N/A   Scattered Clouds
11:40 AM 35.6 °F 28.0 °F 30.2 °F 81% 30.36 in 10.0 mi North 10.4 mph 16.1 mph N/A   Mostly Cloudy
11:59 AM 35.6 °F 27.5 °F 28.4 °F 75% 30.35 in 10.0 mi North 11.5 mph - N/A   Scattered Clouds
12:20 PM 35.6 °F 28.0 °F 28.4 °F 75% 30.35 in 10.0 mi North 10.4 mph - N/A   Scattered Clouds
12:39 PM 35.6 °F 26.2 °F 30.2 °F 81% 30.35 in 10.0 mi North 15.0 mph - N/A   Scattered Clouds
12:59 PM 35.6 °F 28.0 °F 28.4 °F 75% 30.35 in 10.0 mi North 10.4 mph 18.4 mph N/A   Scattered Clouds
1:20 PM 35.6 °F 28.0 °F 28.4 °F 75% 30.34 in 10.0 mi North 10.4 mph - N/A   Mostly Cloudy
1:39 PM 35.6 °F 28.6 °F 28.4 °F 75% 30.33 in 10.0 mi North 9.2 mph - N/A   Mostly Cloudy
1:59 PM 35.6 °F 29.2 °F 28.4 °F 75% 30.34 in 10.0 mi NNE 8.1 mph - N/A   Scattered Clouds
2:20 PM 35.6 °F 28.6 °F 28.4 °F 75% 30.33 in 10.0 mi NNE 9.2 mph - N/A   Clear
2:39 PM 35.6 °F 29.9 °F 28.4 °F 75% 30.34 in 10.0 mi North 6.9 mph - N/A   Clear
2:59 PM 35.6 °F 28.6 °F 26.6 °F 70% 30.35 in 10.0 mi North 9.2 mph - N/A   Clear
3:20 PM 35.6 °F 28.0 °F 26.6 °F 70% 30.35 in 10.0 mi North 10.4 mph - N/A   Clear
3:39 PM 35.6 °F 29.2 °F 26.6 °F 70% 30.35 in 10.0 mi North 8.1 mph - N/A   Clear
3:59 PM 33.8 °F 27.7 °F 26.6 °F 75% 30.35 in 10.0 mi North 6.9 mph - N/A   Clear
4:20 PM 33.8 °F 26.4 °F 26.6 °F 75% 30.35 in 10.0 mi North 9.2 mph - N/A   Clear
4:39 PM 33.8 °F 27.7 °F 26.6 °F 75% 30.36 in 10.0 mi North 6.9 mph - N/A   Clear
4:59 PM 33.8 °F 27.7 °F 26.6 °F 75% 30.35 in 10.0 mi NNE 6.9 mph - N/A   Clear
5:20 PM 32.0 °F 27.5 °F 26.6 °F 80% 30.36 in 10.0 mi North 4.6 mph - N/A   Clear
5:39 PM 32.0 °F 27.5 °F 26.6 °F 80% 30.36 in 10.0 mi North 4.6 mph - N/A   Clear
5:59 PM 32.0 °F 27.5 °F 26.6 °F 80% 30.37 in 10.0 mi North 4.6 mph - N/A   Clear
6:20 PM 32.0 °F - 26.6 °F 80% 30.36 in 10.0 mi Calm Calm - N/A   Clear
6:39 PM 30.2 °F - 24.8 °F 80% 30.37 in 10.0 mi Calm Calm - N/A   Clear
7:20 PM 30.2 °F - 24.8 °F 80% 30.36 in 10.0 mi Calm Calm - N/A   Clear
7:39 PM 30.2 °F 23.4 °F 24.8 °F 80% 30.36 in 10.0 mi NE 6.9 mph - N/A   Clear
8:00 PM 30.2 °F 24.3 °F 24.8 °F 80% 30.35 in 10.0 mi NE 5.8 mph - N/A   Clear
8:20 PM 30.2 °F 24.3 °F 24.8 °F 80% 30.35 in 10.0 mi NE 5.8 mph - N/A   Clear
8:39 PM 30.2 °F 24.3 °F 24.8 °F 80% 30.35 in 10.0 mi NE 5.8 mph - N/A   Clear
9:00 PM 30.2 °F 24.3 °F 23.0 °F 75% 30.35 in 10.0 mi NE 5.8 mph - N/A   Clear
9:19 PM 28.4 °F 23.3 °F 23.0 °F 80% 30.35 in 10.0 mi ENE 4.6 mph - N/A   Clear
9:39 PM 28.4 °F 23.3 °F 23.0 °F 80% 30.33 in 10.0 mi ENE 4.6 mph - N/A   Clear
10:00 PM 28.4 °F 23.3 °F 23.0 °F 80% 30.34 in 10.0 mi ENE 4.6 mph - N/A   Clear
10:19 PM 28.4 °F 23.3 °F 23.0 °F 80% 30.34 in 10.0 mi NE 4.6 mph - N/A   Clear
10:39 PM 28.4 °F 24.6 °F 23.0 °F 80% 30.34 in 10.0 mi NE 3.5 mph - N/A   Clear
11:19 PM 28.4 °F 24.6 °F 23.0 °F 80% 30.34 in 10.0 mi ENE 3.5 mph - N/A   Clear
11:39 PM 26.6 °F 21.2 °F 23.0 °F 86% 30.33 in 10.0 mi East 4.6 mph - N/A   Clear